Location: Beekmeers
(50.8953°N, 3.6968°E)
Time: 02:15:33
(UTC+00:00)

Cosmos 468 Rocket - Pass Details

Date: 23 May 2024
Orbit: 741 x 777 km, 74.0° (Epoch: 16 June)

Event Time Altitude Azimuth Distance (km) Brightness Sun altitude
Rises 00:39:08 0° 334° (NNW) 3,271 8.1 -17.4°
Reaches altitude 10° 00:41:32 10° 332° (NNW) 2,337 7.2 -17.3°
Maximum altitude 00:46:49 71° 250° (WSW) 820 4.0 -17.1°
Enters shadow 00:49:49 26° 171° (S) 1,490 5.0 -16.9°
